N5CSU Weather Reports


time (UTC)temp
C
wind
direction
speed
KPH
gust
KPH
rain 1hr
cm
rain 24hr
cm
rain mn
cm
humidity
%
barometer
mb
20260504221356 26 197 1.6 3.2 0.00 0.00 0.00 61 1007.7
20260504220854 26 189 0.0 0.0 0.00 0.00 0.00 61 1007.6
20260504220350 26 188 0.0 0.0 0.00 0.00 0.00 61 1007.8
20260504215847 26 198 0.0 1.6 0.00 0.00 0.00 60 1007.7
20260504215343 26 189 1.6 1.6 0.00 0.00 0.00 60 1007.9
20260504214840 26 176 4.8 4.8 0.00 0.00 0.00 59 1007.8
20260504214337 26 207 1.6 3.2 0.00 0.00 0.00 59 1007.7
20260504213833 26 177 3.2 4.8 0.00 0.00 0.00 60 1008.0
20260504213329 26 255 1.6 1.6 0.00 0.00 0.00 60 1008.1
20260504212827 26 171 1.6 3.2 0.00 0.00 0.00 59 1008.0
20260504212323 27 197 3.2 4.8 0.00 0.00 0.00 58 1008.3
20260504211821 26 226 1.6 1.6 0.00 0.00 0.00 59 1008.3
20260504211316 26 198 0.0 0.0 0.00 0.00 0.00 60 1008.4
20260504210814 26 194 0.0 0.0 0.00 0.00 0.00 60 1008.5
20260504210311 26 253 0.0 0.0 0.00 0.00 0.00 60 1008.4
20260504205808 26 203 0.0 1.6 0.00 0.00 0.00 60 1008.7
20260504205306 26 193 6.4 9.7 0.00 0.00 0.00 60 1008.9
20260504204804 26 192 3.2 3.2 0.00 0.00 0.00 60 1008.8
20260504204302 26 196 3.2 3.2 0.00 0.00 0.00 60 1008.9
20260504203801 26 219 1.6 3.2 0.00 0.00 0.00 60 1009.2
20260504203258 26 204 1.6 1.6 0.00 0.00 0.00 60 1009.0
20260504202758 26 200 0.0 0.0 0.00 0.00 0.00 60 1009.4
20260504202256 26 225 0.0 0.0 0.00 0.00 0.00 60 1009.4
20260504201753 26 312 1.6 3.2 0.00 0.00 0.00 59 1009.6
20260504201250 26 208 3.2 4.8 0.00 0.00 0.00 59 1009.6
20260504200748 26 201 1.6 3.2 0.00 0.00 0.00 58 1009.8
20260504200243 26 190 0.0 0.0 0.00 0.00 0.00 59 1009.9
20260504195740 26 186 1.6 3.2 0.00 0.00 0.00 57 1009.9
20260504195236 26 228 1.6 1.6 0.00 0.00 0.00 58 1010.4
20260504194733 26 204 1.6 1.6 0.00 0.00 0.00 57 1010.0
20260504194229 26 211 1.6 6.4 0.00 0.00 0.00 57 1010.2
20260504193726 26 223 0.0 1.6 0.00 0.00 0.00 59 1010.2
20260504193223 26 199 0.0 0.0 0.00 0.00 0.00 58 1010.3
20260504192722 26 195 1.6 3.2 0.00 0.00 0.00 58 1010.4
20260504192219 25 175 3.2 4.8 0.00 0.00 0.00 57 1010.6
20260504191718 25 204 0.0 1.6 0.00 0.00 0.00 58 1010.7
20260504191214 26 167 3.2 4.8 0.00 0.00 0.00 56 1010.6
20260504190709 26 299 6.4 9.7 0.00 0.00 0.00 55 1010.6
20260504190206 25 150 1.6 4.8 0.00 0.00 0.00 56 1010.8
20260504185703 25 201 1.6 1.6 0.00 0.00 0.00 57 1010.8
20260504185159 25 188 0.0 0.0 0.00 0.00 0.00 57 1010.8
20260504184656 25 194 4.8 6.4 0.00 0.00 0.00 56 1010.9
20260504184150 25 221 3.2 6.4 0.00 0.00 0.00 55 1010.9
20260504183647 25 179 3.2 3.2 0.00 0.00 0.00 58 1011.0
20260504183145 25 187 4.8 4.8 0.00 0.00 0.00 55 1011.0
20260504182643 25 185 3.2 4.8 0.00 0.00 0.00 56 1011.1
20260504182140 25 171 1.6 3.2 0.00 0.00 0.00 55 1011.5
20260504181637 25 203 1.6 1.6 0.00 0.00 0.00 55 1011.4
20260504181135 25 208 0.0 1.6 0.00 0.00 0.00 56 1011.5
20260504180634 25 215 0.0 0.0 0.00 0.00 0.00 55 1011.5
20260504180132 25 177 6.4 11.3 0.00 0.00 0.00 53 1011.3
20260504175629 25 235 1.6 3.2 0.00 0.00 0.00 54 1011.6
20260504175125 25 195 0.0 1.6 0.00 0.00 0.00 53 1011.9
20260504174624 25 201 0.0 1.6 0.00 0.00 0.00 52 1011.9
20260504174120 25 171 0.0 1.6 0.00 0.00 0.00 55 1011.9
20260504173617 25 193 1.6 3.2 0.00 0.00 0.00 53 1011.8
20260504173115 25 192 1.6 1.6 0.00 0.00 0.00 53 1012.0
20260504172611 25 286 1.6 1.6 0.00 0.00 0.00 53 1012.1
20260504172108 24 192 0.0 0.0 0.00 0.00 0.00 51 1012.0
20260504171604 24 173 1.6 1.6 0.00 0.00 0.00 53 1012.2
20260504171101 24 196 1.6 3.2 0.00 0.00 0.00 52 1012.2
20260504170557 24 217 1.6 3.2 0.00 0.00 0.00 53 1012.4
20260504150941 21 174 3.2 4.8 0.00 0.00 0.00 65 1013.6
20260504150437 21 178 1.6 3.2 0.00 0.00 0.00 66 1013.8
20260504140904 19 135 3.2 4.8 0.00 0.00 0.00 71 1014.2
20260504140400 19 176 3.2 3.2 0.00 0.00 0.00 71 1014.1
20260504130325 17 176 0.0 0.0 0.00 0.00 0.00 76 1014.1
20260504120248 17 208 0.0 1.6 0.00 0.00 0.00 75 1013.7
20260504110716 17 195 0.0 0.0 0.00 0.00 0.00 73 1013.5
20260504110212 17 174 0.0 0.0 0.00 0.00 0.00 72 1013.6
20260504100136 17 205 0.0 0.0 0.00 0.00 0.00 73 1014.0
20260504081529 17 189 0.0 0.0 0.00 0.00 0.00 68 1014.3
20260504081025 17 198 0.0 0.0 0.00 0.00 0.00 68 1014.4
20260504080522 17 172 0.0 0.0 0.00 0.00 0.00 68 1014.6
20260504050335 18 194 0.0 0.0 0.00 0.00 0.00 64 1016.3
20260504045832 18 181 0.0 0.0 0.00 0.00 0.00 64 1016.4
20260504045326 18 188 0.0 0.0 0.00 0.00 0.00 64 1016.4
20260504044824 18 180 0.0 0.0 0.00 0.00 0.00 63 1016.6
20260504044321 18 196 0.0 0.0 0.00 0.00 0.00 63 1016.6
20260504043818 18 192 0.0 0.0 0.00 0.00 0.00 63 1016.5
20260504043315 18 183 0.0 0.0 0.00 0.00 0.00 63 1016.6
20260504042813 18 188 0.0 0.0 0.00 0.00 0.00 62 1016.6
20260504042309 18 190 0.0 0.0 0.00 0.00 0.00 62 1016.5
20260504041805 18 186 0.0 0.0 0.00 0.00 0.00 62 1016.4
20260504041301 18 188 0.0 0.0 0.00 0.00 0.00 62 1016.6
20260504040758 18 179 0.0 0.0 0.00 0.00 0.00 62 1016.4
20260504040255 18 192 0.0 0.0 0.00 0.00 0.00 62 1016.6
20260504035751 18 184 0.0 0.0 0.00 0.00 0.00 61 1016.4
20260504035248 19 188 0.0 0.0 0.00 0.00 0.00 60 1016.5
20260504034746 19 183 0.0 0.0 0.00 0.00 0.00 60 1016.5
20260504034243 19 194 0.0 0.0 0.00 0.00 0.00 59 1016.5
20260504033740 19 198 0.0 0.0 0.00 0.00 0.00 58 1016.4
20260504033238 20 194 0.0 0.0 0.00 0.00 0.00 58 1016.6
20260504032735 20 194 0.0 0.0 0.00 0.00 0.00 57 1016.5
20260504032232 20 183 0.0 0.0 0.00 0.00 0.00 57 1016.3
20260504031728 20 184 0.0 0.0 0.00 0.00 0.00 56 1016.3
20260504031226 20 195 0.0 0.0 0.00 0.00 0.00 56 1016.1
20260504030721 20 197 0.0 0.0 0.00 0.00 0.00 55 1016.4
20260504030219 20 200 0.0 0.0 0.00 0.00 0.00 55 1016.1
20260504025715 20 194 0.0 0.0 0.00 0.00 0.00 54 1016.1
20260504025212 20 180 0.0 0.0 0.00 0.00 0.00 54 1016.4
20260504024709 20 194 0.0 0.0 0.00 0.00 0.00 54 1016.0
20260504024206 20 200 0.0 0.0 0.00 0.00 0.00 53 1016.1
20260504023703 21 196 0.0 0.0 0.00 0.00 0.00 53 1016.0
20260504023158 21 191 0.0 0.0 0.00 0.00 0.00 51 1016.0
20260504022655 21 201 0.0 0.0 0.00 0.00 0.00 50 1016.4
20260504022150 21 187 0.0 0.0 0.00 0.00 0.00 51 1016.4
20260504021649 21 187 0.0 0.0 0.00 0.00 0.00 50 1016.1
20260504021145 21 193 0.0 0.0 0.00 0.00 0.00 49 1016.1
20260504020642 22 187 0.0 0.0 0.00 0.00 0.00 49 1016.3
20260504020138 22 195 0.0 0.0 0.00 0.00 0.00 48 1016.0
20260504015635 22 199 0.0 0.0 0.00 0.00 0.00 49 1015.7
20260504015131 22 198 0.0 0.0 0.00 0.00 0.00 48 1016.0
20260504014627 22 193 0.0 0.0 0.00 0.00 0.00 48 1015.9
20260504014124 22 195 0.0 0.0 0.00 0.00 0.00 49 1015.8
20260504013622 22 199 0.0 0.0 0.00 0.00 0.00 48 1016.0
20260504013119 22 205 0.0 0.0 0.00 0.00 0.00 46 1015.9
20260504012616 22 192 0.0 0.0 0.00 0.00 0.00 47 1015.8
20260504012114 23 198 0.0 0.0 0.00 0.00 0.00 46 1015.8
20260504011611 23 192 0.0 0.0 0.00 0.00 0.00 45 1015.7
20260504011107 23 199 0.0 0.0 0.00 0.00 0.00 44 1015.8
20260504010603 23 201 0.0 0.0 0.00 0.00 0.00 44 1016.0
20260504010059 23 195 0.0 0.0 0.00 0.00 0.00 45 1015.8
20260504005555 23 194 0.0 0.0 0.00 0.00 0.00 44 1015.7
20260504005053 23 190 0.0 0.0 0.00 0.00 0.00 44 1015.6
20260504004551 23 190 0.0 0.0 0.00 0.00 0.00 43 1015.6
20260504004048 24 196 0.0 0.0 0.00 0.00 0.00 42 1015.7
20260504003543 24 201 0.0 0.0 0.00 0.00 0.00 40 1015.9
20260504003041 24 179 0.0 0.0 0.00 0.00 0.00 40 1015.7
20260504002537 24 225 0.0 0.0 0.00 0.00 0.00 42 1015.8
20260504002035 24 215 0.0 0.0 0.00 0.00 0.00 41 1015.8
20260504001533 25 218 0.0 0.0 0.00 0.00 0.00 41 1015.8
20260504001028 25 184 0.0 0.0 0.00 0.00 0.00 41 1015.8
20260504000526 25 195 0.0 0.0 0.00 0.00 0.00 40 1015.8
20260504000023 25 186 0.0 0.0 0.00 0.00 0.00 40 1016.0
20260503235521 25 160 0.0 0.0 0.00 0.00 0.00 40 1015.9
20260503235018 25 196 0.0 0.0 0.00 0.00 0.00 41 1016.0
20260503234516 25 186 0.0 0.0 0.00 0.00 0.00 39 1015.9
20260503234014 25 180 0.0 0.0 0.00 0.00 0.00 38 1016.1
20260503233510 25 190 0.0 0.0 0.00 0.00 0.00 39 1016.0
20260503233006 25 215 0.0 0.0 0.00 0.00 0.00 40 1016.1
20260503232503 25 224 0.0 0.0 0.00 0.00 0.00 39 1016.4
20260503232001 25 176 0.0 0.0 0.00 0.00 0.00 38 1016.0
20260503231458 26 198 0.0 0.0 0.00 0.00 0.00 39 1016.0
20260503230955 26 171 0.0 0.0 0.00 0.00 0.00 37 1016.1
20260503230451 26 190 0.0 0.0 0.00 0.00 0.00 38 1016.1
20260503225949 26 182 0.0 0.0 0.00 0.00 0.00 38 1016.1
20260503225445 26 178 0.0 0.0 0.00 0.00 0.00 39 1016.3
20260503224941 26 206 0.0 1.6 0.00 0.00 0.00 37 1016.4
20260503224438 26 207 0.0 0.0 0.00 0.00 0.00 38 1016.3
20260503223936 26 183 0.0 0.0 0.00 0.00 0.00 38 1016.3
20260503223434 26 188 0.0 0.0 0.00 0.00 0.00 36 1016.4
20260503222929 26 173 1.6 1.6 0.00 0.00 0.00 38 1016.5
20260503222428 26 189 0.0 0.0 0.00 0.00 0.00 39 1016.4
20260503221926 26 202 0.0 0.0 0.00 0.00 0.00 40 1016.6